FW5359 Weather Reports


time (UTC)temp
F
wind
direction
speed
knots
gust
knots
rain 1hr
in
rain 24hr
in
rain mn
in
humidity
%
barometer
mb
20260508135109 62 76 1.7 4.3 0.00 0.00 0.00 87 1014.9
20260508134602 62 76 0.9 4.3 0.00 0.00 0.00 87 1014.7
20260508134329 62 78 0.9 3.5 0.00 0.00 0.00 87 1014.7
20260508133559 62 78 0.9 3.5 0.00 0.00 0.00 87 1014.5
20260508133100 62 78 0.9 3.5 0.00 0.00 0.00 87 1014.4
20260508132557 61 80 0.9 3.5 0.00 0.00 0.00 87 1014.4
20260508132328 61 80 0.9 3.5 0.00 0.00 0.00 87 1014.3
20260508131553 61 80 0.9 2.6 0.00 0.00 0.00 87 1014.4
20260508131051 61 59 0.0 1.7 0.00 0.00 0.00 87 1014.2
20260508130551 61 55 0.0 1.7 0.00 0.00 0.00 87 1014.3
20260508130052 61 55 0.0 1.7 0.00 0.00 0.00 88 1014.1
20260508125549 61 55 0.9 2.6 0.00 0.00 0.00 87 1014.0
20260508125047 61 55 0.9 3.5 0.00 0.00 0.00 87 1014.2
20260508124816 61 55 0.9 3.5 0.00 0.00 0.00 87 1014.4
20260508124047 61 55 0.9 2.6 0.00 0.00 0.00 87 1014.5
20260508123541 61 55 0.0 1.7 0.00 0.00 0.00 87 1014.7
20260508123040 61 55 0.9 2.6 0.00 0.00 0.00 87 1014.5
20260508122537 61 55 0.9 2.6 0.00 0.00 0.00 86 1014.5
20260508122035 61 55 0.9 2.6 0.00 0.00 0.00 86 1014.5
20260508121533 61 55 0.9 2.6 0.00 0.00 0.00 86 1014.4
20260508121032 61 55 0.0 1.7 0.00 0.00 0.00 85 1014.4
20260508120529 62 55 0.0 3.5 0.00 0.00 0.00 85 1014.6
20260508120300 62 55 0.9 4.3 0.00 0.00 0.00 84 1014.7
20260508115529 62 55 1.7 4.3 0.00 0.00 0.00 83 1014.9
20260508115029 62 55 0.9 3.5 0.00 0.00 0.00 83 1015.0
20260508114528 62 55 0.9 3.5 0.00 0.00 0.00 83 1014.9
20260508114028 62 55 1.7 4.3 0.00 0.00 0.00 83 1015.3
20260508113529 62 55 0.9 4.3 0.00 0.00 0.00 84 1014.8
20260508113029 62 51 0.9 5.2 0.00 0.00 0.00 85 1014.8
20260508112529 62 52 0.9 5.2 0.00 0.00 0.00 85 1014.8
20260508112028 62 50 0.9 4.3 0.00 0.00 0.00 85 1014.5
20260508111528 62 49 1.7 5.2 0.00 0.00 0.00 85 1014.4
20260508111029 62 38 1.7 5.2 0.00 0.00 0.00 85 1014.6
20260508110529 62 66 1.7 5.2 0.00 0.00 0.00 85 1014.9
20260508110029 62 67 0.9 2.6 0.00 0.00 0.00 85 1014.8
20260508105527 62 67 0.9 2.6 0.00 0.00 0.00 85 1014.8
20260508105026 62 67 0.9 3.5 0.00 0.00 0.00 85 1014.7
20260508104526 62 67 0.9 3.5 0.00 0.00 0.00 85 1014.6
20260508104027 62 67 0.9 3.5 0.00 0.00 0.00 84 1014.6
20260508103525 62 60 0.9 3.5 0.00 0.00 0.00 85 1014.7
20260508103024 62 59 0.9 3.5 0.00 0.00 0.00 85 1015.0
20260508102518 62 59 0.0 3.5 0.00 0.00 0.00 85 1015.3
20260508102012 62 59 0.0 3.5 0.00 0.00 0.00 85 1015.3
20260508101506 62 59 0.0 2.6 0.00 0.00 0.00 85 1015.0
20260508101001 62 59 0.0 1.7 0.00 0.00 0.00 85 1014.7
20260508095948 62 59 0.0 2.6 0.00 0.00 0.00 85 1014.5
20260508095442 62 59 0.0 1.7 0.00 0.00 0.00 85 1014.6
20260508094936 62 59 0.0 3.5 0.00 0.00 0.00 85 1014.7
20260508094701 62 59 0.9 3.5 0.00 0.00 0.00 85 1014.6
20260508093418 62 59 0.9 5.2 0.00 0.00 0.00 85 1014.6
20260508092912 62 61 0.9 5.2 0.00 0.00 0.00 84 1014.6
20260508092405 62 66 0.0 2.6 0.00 0.00 0.00 84 1014.5
20260508091900 62 66 0.9 2.6 0.00 0.00 0.00 83 1014.4
20260508091354 63 66 0.9 3.5 0.00 0.00 0.00 83 1014.0
20260508090847 63 66 0.9 3.5 0.00 0.00 0.00 82 1013.7
20260508090342 63 66 0.9 2.6 0.00 0.00 0.00 82 1013.9
20260508090107 63 65 0.9 4.3 0.00 0.00 0.00 81 1014.7
20260508085330 63 65 0.9 4.3 0.00 0.00 0.00 81 1015.0
20260508084823 63 66 0.9 3.5 0.00 0.00 0.00 81 1014.7
20260508084317 63 66 0.9 2.6 0.00 0.00 0.00 81 1014.5
20260508083812 63 66 0.0 2.6 0.00 0.00 0.00 81 1015.2
20260508083306 63 66 0.0 2.6 0.00 0.00 0.00 80 1015.2
20260508082800 63 66 0.9 2.6 0.00 0.00 0.00 80 1014.8
20260508082254 63 66 0.9 2.6 0.00 0.00 0.00 80 1015.0
20260508081747 63 66 0.9 3.5 0.00 0.00 0.00 80 1014.9
20260508081242 63 66 1.7 5.2 0.00 0.00 0.00 80 1015.0
20260508080736 63 66 1.7 5.2 0.00 0.00 0.00 80 1015.0
20260508080230 63 74 1.7 3.5 0.00 0.00 0.00 77 1015.0
20260508075724 63 74 0.9 3.5 0.00 0.00 0.00 78 1015.3
20260508075218 63 74 0.9 2.6 0.00 0.00 0.00 77 1015.2
20260508074712 63 74 0.0 1.7 0.00 0.00 0.00 78 1015.3
20260508074205 63 74 0.0 1.7 0.00 0.00 0.00 77 1015.3
20260508073700 63 74 0.9 2.6 0.00 0.00 0.00 77 1015.5
20260508073154 63 74 0.9 3.5 0.00 0.00 0.00 77 1015.7
20260508072648 63 74 0.9 3.5 0.00 0.00 0.00 76 1015.6
20260508072141 63 74 0.9 2.6 0.00 0.00 0.00 76 1015.6
20260508071636 64 74 0.9 2.6 0.00 0.00 0.00 76 1015.6
20260508071130 64 74 0.9 2.6 0.00 0.00 0.00 75 1015.7
20260508070625 64 74 0.9 2.6 0.00 0.00 0.00 75 1015.8
20260508070349 64 74 0.9 1.7 0.00 0.00 0.00 75 1015.7
20260508065611 64 74 0.9 1.7 0.00 0.00 0.00 75 1015.7
20260508065105 64 74 0.0 1.7 0.00 0.00 0.00 75 1015.7
20260508064600 64 74 0.0 2.6 0.00 0.00 0.00 75 1015.8
20260508064325 64 74 0.0 2.6 0.00 0.00 0.00 74 1015.8
20260508063819 64 74 0.0 0.0 0.00 0.00 0.00 74 1015.9
20260508063041 64 74 0.0 0.0 0.00 0.00 0.00 74 1016.1
20260508062542 64 74 0.0 0.0 0.00 0.00 0.00 74 1015.9
20260508062040 64 74 0.9 4.3 0.00 0.00 0.00 74 1015.5
20260508061538 64 74 0.9 4.3 0.00 0.00 0.00 74 1015.4
20260508061036 64 74 0.9 4.3 0.00 0.00 0.00 74 1015.3
20260508060534 64 74 1.7 4.3 0.00 0.00 0.00 74 1015.0
20260508060034 64 76 1.7 4.3 0.00 0.00 0.00 74 1015.0
20260508055534 64 67 1.7 5.2 0.00 0.00 0.00 74 1014.7
20260508055032 64 61 0.9 5.2 0.00 0.00 0.00 74 1015.4
20260508054532 64 351 0.0 2.6 0.00 0.00 0.00 74 1015.8
20260508054032 64 348 0.0 1.7 0.00 0.00 0.00 73 1015.9
20260508053532 64 348 0.9 1.7 0.00 0.00 0.00 73 1016.0
20260508053303 65 348 0.0 0.9 0.00 0.00 0.00 73 1016.1
20260508052532 65 348 0.0 1.7 0.00 0.00 0.00 73 1016.2
20260508052032 64 348 0.0 1.7 0.00 0.00 0.00 73 1016.7
20260508051530 64 348 0.0 1.7 0.00 0.00 0.00 72 1016.9
20260508051030 64 348 0.0 1.7 0.00 0.00 0.00 72 1016.6
20260508050532 64 348 0.0 0.0 0.00 0.00 0.00 72 1016.4
20260508050305 64 348 0.0 0.9 0.00 0.00 0.00 72 1016.4
20260508045759 64 348 0.0 2.6 0.00 0.00 0.00 72 1016.1
20260508045021 64 348 0.9 2.6 0.00 0.00 0.00 72 1016.1
20260508044516 64 347 0.9 4.3 0.00 0.00 0.00 72 1016.3
20260508044009 64 347 0.9 4.3 0.00 0.00 0.00 72 1016.5
20260508043503 64 290 1.7 7.0 0.00 0.00 0.00 73 1016.4
20260508043228 64 289 2.6 7.0 0.00 0.00 0.00 73 1016.7
20260508042452 64 304 1.7 4.3 0.00 0.00 0.00 73 1016.2
20260508041946 64 74 1.7 4.3 0.00 0.00 0.00 72 1015.0
20260508041440 64 74 1.7 4.3 0.00 0.00 0.00 72 1014.7
20260508040933 64 74 1.7 7.0 0.00 0.00 0.00 72 1014.6
20260508040427 64 74 1.7 7.0 0.00 0.00 0.00 72 1014.6
20260508035921 64 74 2.6 7.0 0.00 0.00 0.00 71 1014.3
20260508035415 64 91 2.6 7.0 0.00 0.00 0.00 71 1014.4
20260508034910 64 90 1.7 6.1 0.00 0.00 0.00 71 1014.8
20260508034634 65 61 1.7 4.3 0.00 0.00 0.00 72 1015.3
20260508033857 65 59 1.7 4.3 0.00 0.00 0.00 72 1015.3
20260508033351 65 46 1.7 4.3 0.00 0.00 0.00 72 1015.6
20260508033116 65 41 1.7 4.3 0.00 0.00 0.00 72 1015.7
20260508032339 65 40 0.9 3.5 0.00 0.00 0.00 72 1015.6
20260508031833 65 38 0.9 2.6 0.00 0.00 0.00 72 1015.8
20260508031328 65 38 0.9 2.6 0.00 0.00 0.00 71 1016.0
20260508030822 65 38 0.9 4.3 0.00 0.00 0.00 71 1016.2
20260508030316 65 38 0.9 4.3 0.00 0.00 0.00 71 1016.3
20260508025810 65 37 0.0 2.6 0.00 0.00 0.00 71 1016.4
20260508024758 65 37 0.0 0.0 0.00 0.00 0.00 71 1016.5
20260508024251 65 37 0.0 0.0 0.00 0.00 0.00 71 1016.3
20260508023745 65 37 0.0 0.9 0.00 0.00 0.00 70 1016.1
20260508023240 65 37 0.0 1.7 0.00 0.00 0.00 70 1016.1
20260508022734 65 37 0.0 2.6 0.00 0.00 0.00 69 1016.2
20260508022228 65 37 0.0 2.6 0.00 0.00 0.00 70 1016.2
20260508021721 65 37 0.0 0.0 0.00 0.00 0.00 70 1016.1
20260508021448 65 37 0.0 0.0 0.00 0.00 0.00 70 1015.8
20260508020717 65 37 0.0 0.0 0.00 0.00 0.00 70 1015.9
20260508020215 65 37 0.0 0.0 0.00 0.00 0.00 70 1016.0
20260508015713 65 37 0.0 0.0 0.00 0.00 0.00 70 1015.9
20260508015212 65 37 0.0 0.0 0.00 0.00 0.00 70 1015.4
20260508014712 65 37 0.0 0.0 0.00 0.00 0.00 69 1015.0
20260508014209 65 37 0.9 3.5 0.00 0.00 0.00 69 1015.3
20260508013709 65 37 0.9 3.5 0.00 0.00 0.00 68 1015.2
20260508013438 66 37 0.9 4.3 0.00 0.00 0.00 68 1015.0
20260508012707 66 37 0.9 4.3 0.00 0.00 0.00 68 1015.0
20260508012207 66 37 0.9 3.5 0.00 0.00 0.00 68 1014.9
20260508011707 66 36 0.9 2.6 0.00 0.00 0.00 69 1015.0
20260508011207 66 34 0.9 3.5 0.00 0.00 0.00 68 1014.8
20260508010703 66 30 0.9 4.3 0.00 0.00 0.00 69 1014.9
20260508010203 66 30 1.7 4.3 0.00 0.00 0.00 69 1014.7
20260508005702 66 28 2.6 7.0 0.00 0.00 0.00 70 1014.5
20260508005203 66 37 2.6 7.0 0.00 0.00 0.00 69 1014.3
20260508004203 67 116 1.7 6.1 0.00 0.00 0.00 69 1013.2
20260508003703 67 115 1.7 6.1 0.00 0.00 0.00 68 1013.1
20260508001657 67 86 2.6 7.0 0.00 0.00 0.00 68 1013.2
20260508001428 67 84 2.6 7.0 0.00 0.00 0.00 67 1013.9
20260508000926 67 90 2.6 6.1 0.00 0.00 0.00 67 1014.2
20260508000154 67 77 2.6 6.1 0.00 0.00 0.00 67 1014.4
20260507235655 67 74 2.6 7.8 0.00 0.00 0.00 66 1014.6
20260507235425 68 91 2.6 7.8 0.00 0.00 0.00 66 1014.7
20260507234652 68 78 1.7 7.8 0.00 0.00 0.00 66 1014.6
20260507234426 68 98 1.7 5.2 0.00 0.00 0.00 67 1015.2
20260507233651 68 84 1.7 5.2 0.00 0.00 0.00 67 1015.4
20260507233421 68 88 1.7 7.0 0.00 0.00 0.00 66 1015.7
20260507232648 68 61 2.6 8.7 0.00 0.00 0.00 66 1015.8
20260507232148 68 67 2.6 8.7 0.00 0.00 0.00 66 1015.9
20260507231649 69 75 2.6 8.7 0.00 0.00 0.00 66 1015.8
20260507231149 69 65 2.6 7.0 0.00 0.00 0.00 66 1015.7
20260507230647 69 53 2.6 8.7 0.00 0.00 0.00 66 1015.8
20260507230149 69 44 2.6 8.7 0.00 0.00 0.00 66 1015.8
20260507225641 69 69 2.6 6.1 0.00 0.00 0.00 67 1015.9
20260507225135 69 75 1.7 7.0 0.00 0.00 0.00 67 1016.0
20260507224629 69 25 1.7 7.0 0.00 0.00 0.00 66 1016.2
20260507224353 69 57 1.7 6.1 0.00 0.00 0.00 67 1016.1
20260507223617 69 58 2.6 6.1 0.00 0.00 0.00 66 1016.2
20260507223111 69 71 2.6 7.0 0.00 0.00 0.00 65 1016.2
20260507222605 69 82 2.6 7.0 0.00 0.00 0.00 67 1016.3
20260507222058 69 85 2.6 7.0 0.00 0.00 0.00 67 1016.4
20260507221552 69 60 2.6 7.8 0.00 0.00 0.00 65 1016.5
20260507220813 69 88 3.5 9.6 0.00 0.00 0.00 66 1016.4
20260507220034 69 80 3.5 9.6 0.00 0.00 0.00 66 1016.3
20260507215528 68 96 3.5 7.8 0.00 0.00 0.00 67 1016.2
20260507215023 68 57 3.5 10.4 0.00 0.00 0.00 67 1016.2
20260507214517 68 69 3.5 10.4 0.00 0.00 0.00 67 1016.3
20260507214011 68 43 3.5 9.6 0.00 0.00 0.00 69 1016.4
20260507213735 68 88 2.6 8.7 0.00 0.00 0.00 69 1016.6
20260507213230 68 87 2.6 7.0 0.00 0.00 0.00 69 1016.5
20260507212452 68 103 2.6 7.0 0.00 0.00 0.00 69 1016.7
20260507212217 68 82 3.5 9.6 0.00 0.00 0.00 69 1016.7
20260507211711 68 65 2.6 9.6 0.00 0.00 0.00 70 1016.7
20260507210935 67 65 3.5 9.6 0.00 0.00 0.00 70 1016.7
20260507210429 67 56 3.5 9.6 0.00 0.00 0.00 70 1017.2
20260507205923 67 32 2.6 10.4 0.00 0.00 0.00 71 1017.1
20260507205416 67 60 2.6 10.4 0.00 0.00 0.00 72 1017.1
20260507205142 67 55 3.5 9.6 0.00 0.00 0.00 72 1017.0
20260507204404 67 62 3.5 8.7 0.00 0.00 0.00 72 1017.2
20260507203858 67 69 3.5 8.7 0.00 0.00 0.00 72 1017.0
20260507203629 67 64 3.5 9.6 0.00 0.00 0.00 73 1016.3
20260507202846 67 15 3.5 13.0 0.00 0.00 0.00 73 1016.5
20260507202340 68 74 3.5 13.0 0.00 0.00 0.00 73 1016.5
20260507201835 68 44 3.5 10.4 0.00 0.00 0.00 73 1016.5
20260507201559 68 71 4.3 12.2 0.00 0.00 0.00 73 1016.4
20260507200823 68 92 4.3 12.2 0.00 0.00 0.00 74 1016.6
20260507200317 67 80 3.5 12.2 0.00 0.00 0.00 74 1016.4
20260507195811 67 19 3.5 10.4 0.00 0.00 0.00 76 1016.7
20260507195306 66 44 3.5 10.4 0.00 0.00 0.00 76 1016.8
20260507194758 65 66 4.3 10.4 0.00 0.00 0.00 77 1016.6
20260507193746 64 49 4.3 11.3 0.00 0.00 0.00 77 1017.1
20260507193254 64 69 3.5 10.4 0.00 0.00 0.00 77 1016.9
20260507192734 64 62 2.6 8.7 0.00 0.00 0.00 77 1017.1
20260507192228 64 44 2.6 8.7 0.00 0.00 0.00 77 1017.2
20260507191722 64 40 2.6 8.7 0.00 0.00 0.00 78 1017.5
20260507190943 64 65 3.5 11.3 0.00 0.00 0.00 79 1017.4
20260507190204 64 64 4.3 11.3 0.00 0.00 0.00 78 1017.5
20260507185701 64 46 2.6 10.4 0.00 0.00 0.00 78 1017.5
20260507185153 63 75 3.5 9.6 0.00 0.00 0.00 80 1017.0
20260507184647 63 71 4.3 9.6 0.00 0.00 0.00 80 1016.7
20260507184411 62 75 4.3 9.6 0.00 0.00 0.00 79 1016.8
20260507183634 62 144 4.3 11.3 0.00 0.00 0.00 79 1016.9
20260507183404 62 58 4.3 11.3 0.00 0.00 0.00 79 1017.0
20260507182630 62 78 3.5 11.3 0.00 0.00 0.00 79 1017.2
20260507181630 62 17 2.6 7.8 0.00 0.00 0.00 79 1017.9
20260507181130 62 61 2.6 7.8 0.00 0.00 0.00 80 1017.8
20260507180631 62 96 2.6 8.7 0.00 0.00 0.00 80 1018.1
20260507180129 62 48 3.5 8.7 0.00 0.00 0.00 79 1018.2
20260507175630 62 50 2.6 8.7 0.00 0.00 0.00 79 1018.3
20260507175400 62 51 2.6 7.8 0.00 0.00 0.00 79 1018.4
20260507174630 62 71 2.6 7.8 0.00 0.00 0.00 79 1018.5
20260507174126 62 50 3.5 12.2 0.00 0.00 0.00 79 1018.7
20260507173626 62 67 3.5 12.2 0.00 0.00 0.00 78 1018.5
20260507173126 63 54 3.5 9.6 0.00 0.00 0.00 78 1018.6
20260507172856 63 38 3.5 9.6 0.00 0.00 0.00 78 1018.6
20260507172126 64 59 3.5 9.6 0.00 0.00 0.00 78 1018.4
20260507171126 63 82 3.5 11.3 0.00 0.00 0.00 78 1017.9
20260507170625 63 74 3.5 13.9 0.00 0.00 0.00 80 1018.2
20260507170125 62 86 3.5 13.9 0.00 0.00 0.00 80 1018.1
20260507165626 62 103 3.5 10.4 0.00 0.00 0.00 81 1018.2
20260507164854 61 67 3.5 11.3 0.00 0.00 0.00 81 1018.6
20260507164123 61 51 4.3 11.3 0.00 0.00 0.00 82 1018.5
20260507163624 61 88 4.3 11.3 0.00 0.00 0.00 82 1018.4
20260507163123 61 40 3.5 13.0 0.00 0.00 0.00 83 1018.3
20260507162621 60 40 2.6 13.0 0.00 0.00 0.00 83 1018.4
20260507162352 60 74 2.6 9.6 0.00 0.00 0.00 83 1018.6
20260507161622 60 41 3.5 9.6 0.00 0.00 0.00 84 1018.5
20260507161120 60 46 3.5 9.6 0.00 0.00 0.00 83 1018.3
20260507160620 60 28 3.5 11.3 0.00 0.00 0.00 83 1017.9
20260507160119 60 89 4.3 13.0 0.00 0.00 0.00 83 1018.2
20260507155617 60 59 5.2 13.0 0.00 0.00 0.00 83 1018.4
20260507155118 60 56 3.5 12.2 0.00 0.00 0.00 84 1018.4
20260507154617 60 55 3.5 9.6 0.00 0.00 0.00 84 1018.1
20260507154119 60 61 3.5 9.6 0.00 0.00 0.00 84 1018.2
20260507153611 59 60 3.5 11.3 0.00 0.00 0.00 85 1017.9
20260507153111 59 93 4.3 12.2 0.00 0.00 0.00 85 1017.8
20260507152612 59 24 4.3 12.2 0.00 0.00 0.00 84 1017.6
20260507152112 59 74 3.5 9.6 0.00 0.00 0.00 85 1017.7
20260507151611 59 33 4.3 9.6 0.00 0.00 0.00 85 1017.7
20260507151111 59 49 4.3 17.4 0.00 0.00 0.00 85 1017.7
20260507150611 59 40 4.3 17.4 0.00 0.00 0.00 84 1017.7
20260507150111 59 104 4.3 11.3 0.00 0.00 0.00 85 1017.5
20260507145612 59 80 4.3 11.3 0.00 0.00 0.00 85 1017.6
20260507145111 59 44 4.3 12.2 0.00 0.00 0.00 85 1017.8
20260507144611 59 71 3.5 12.2 0.00 0.00 0.00 85 1017.9
20260507144111 59 74 3.5 9.6 0.00 0.00 0.00 86 1017.6
20260507143612 59 76 4.3 14.8 0.00 0.00 0.00 86 1017.5
20260507143343 59 34 4.3 14.8 0.00 0.00 0.00 86 1017.6
20260507142611 59 5 4.3 12.2 0.00 0.00 0.00 86 1017.5
20260507142110 59 155 4.3 14.8 0.00 0.00 0.00 87 1017.4
20260507141605 59 48 5.2 14.8 0.00 0.00 0.00 87 1017.3
20260507141059 59 74 4.3 13.0 0.00 0.00 0.00 87 1017.4
20260507140553 59 41 3.5 13.9 0.00 0.00 0.00 87 1017.6
20260507140047 59 95 4.3 15.6 0.00 0.00 0.00 87 1017.7
20260507135540 59 93 5.2 15.6 0.00 0.00 0.00 87 1017.6